Regional Weather Roundup
Issued by NWS

Home | Current Version | Previous Version | Graphics & Text | Print | Product List | Glossary On
Versions: 1 2 3 4 5 6 7 8 9 10 11 12 13 14 15 16 17 18 19 20 21 22 23 24 25 26 27 28 29 30 31 32 33 34 35 36 37 38 39 40 41 42 43 44 45 46 47 48 49 50
000
ASUS43 KFSD 270902
RWRSD

WEATHER ROUNDUP FOR SOUTH DAKOTA
NATIONAL WEATHER SERVICE SIOUX FALLS SD
300 AM CST SAT DEC 27 2014

NOTE: "FAIR" INDICATES FEW OR NO CLOUDS BELOW 12,000 FEET WITH NO
SIGNIFICANT WEATHER AND/OR OBSTRUCTIONS TO VISIBILITY.


SDZ001>005-009-010-012>017-271000-
NORTHWEST AND NORTH CENTRAL SOUTH DAKOTA

CITY           SKY/WX    TMP DP  RH WIND       PRES   REMARKS
BUFFALO          N/A     17  13  84 W9        30.02R WCI   6
FAITH            N/A     13   8  81 W7        30.13R WCI   3
MOBRIDGE       CLOUDY     0  -4  83 N3        30.14S
$$

SDZ012>016-024>037-041>051-057-063-072>074-271000-
SOUTHWEST AND SOUTH CENTRAL SOUTH DAKOTA

CITY           SKY/WX    TMP DP  RH WIND       PRES   REMARKS
RAPID CTY ARPT CLOUDY     9   5  84 W6        30.12S WCI  -1
PIERRE         PTCLDY     9   7  92 SW8       30.17R WCI  -3
CUSTER         CLOUDY    10   1  67 W6        29.98R WCI   0
ELLSWORTH AFB  CLOUDY     8   4  84 W6        30.11R WCI  -2
PHILIP         CLOUDY    10   5  80 W9        30.17R WCI  -3
PINE RIDGE     CLOUDY    16  11  80 CALM      30.13S
WINNER         CLOUDY    17  12  80 W6        30.17R WCI   9
$$

SDZ004>011-016>023-039-040-271000-
NORTHEAST SOUTH DAKOTA

CITY           SKY/WX    TMP DP  RH WIND       PRES   REMARKS
ABERDEEN       PTCLDY     7   3  84 NW6       30.20R WCI  -3
WATERTOWN      CLOUDY    14  11  87 NW12      30.12R WCI   0
SISSETON         N/A      8   4  83 N10       30.17S WCI  -6
$$

SDZ017-020-022-023-036>040-048>070-271000-
SOUTHEAST SOUTH DAKOTA

CITY           SKY/WX    TMP DP  RH WIND       PRES   REMARKS
SIOUX FALLS    LGT SNOW  20  17  88 N15       30.10R FOG     WCI   6
HURON          CLOUDY    13   9  84 N6        30.19R WCI   4
MITCHELL       LGT SNOW  16  12  84 NW16      30.19R FOG     WCI   1
YANKTON        CLOUDY    19  16  86 NW16G24   30.16R WCI   5
$$

ABBREVIATIONS USED IN REMARKS
   TC - TEMPERATURE IN CELSIUS
  WCI - WIND CHILL INDEX
   HX - HEAT INDEX
  VSB - VISIBILITY



USA.gov is the U.S. government's official web portal to all federal, state and local government web resources and services.